Time,TemperatureF,DewpointF,PressureIn,WindDirection,WindDirectionDegrees,WindSpeedMPH,WindSpeedGustMPH,Humidity,HourlyPrecipIn,Conditions,Clouds,dailyrainin,SoftwareType,DateUTC
2013-07-24 02:03:00,75.0,50.0,-100.00,South,182,11.0,19.0,42,0.00,,,-99.99,,2013-07-24 02:03:00,
2013-07-24 02:15:00,74.0,50.0,-100.00,South,182,8.0,13.0,43,0.00,,,-99.99,,2013-07-24 02:15:00,
2013-07-24 02:36:00,73.0,50.0,-100.00,South,182,7.0,13.0,45,0.00,,,-99.99,,2013-07-24 02:36:00,
2013-07-24 03:02:00,71.0,51.0,-100.00,South,182,7.0,12.0,50,0.00,,,-99.99,,2013-07-24 03:02:00,
2013-07-24 03:44:00,68.0,52.0,-100.00,South,176,6.0,9.0,57,0.00,,,-99.99,,2013-07-24 03:44:00,
2013-07-24 04:11:00,67.0,53.0,-100.00,South,175,4.0,6.0,61,0.00,,,-99.99,,2013-07-24 04:11:00,
2013-07-24 04:43:00,66.0,52.0,-100.00,SSW,202,4.0,6.0,62,0.00,,,-99.99,,2013-07-24 04:43:00,
2013-07-24 05:43:00,64.0,52.0,-100.00,South,185,4.0,7.0,65,0.00,,,-99.99,,2013-07-24 05:43:00,
2013-07-24 06:01:00,63.0,52.0,-100.00,South,184,6.0,9.0,67,0.00,,,-99.99,,2013-07-24 06:01:00,
2013-07-24 06:34:00,63.0,53.0,-100.00,SSE,164,9.0,12.0,69,0.00,,,-99.99,,2013-07-24 06:34:00,
2013-07-24 06:43:00,62.0,53.0,-100.00,South,172,7.0,11.0,71,0.00,,,-99.99,,2013-07-24 06:43:00,
2013-07-24 07:12:00,62.0,53.0,-100.00,South,182,6.0,9.0,72,0.00,,,-99.99,,2013-07-24 07:12:00,
2013-07-24 07:43:00,60.0,52.0,-100.00,SSW,199,3.0,4.0,77,0.00,,,-99.99,,2013-07-24 07:43:00,
2013-07-24 08:02:00,59.0,52.0,-100.00,South,179,3.0,4.0,77,0.00,,,-99.99,,2013-07-24 08:02:00,
2013-07-24 08:12:00,60.0,52.0,-100.00,SSE,150,2.0,4.0,77,0.00,,,-99.99,,2013-07-24 08:12:00,
2013-07-24 08:32:00,58.0,52.0,-100.00,ESE,114,2.0,4.0,79,0.00,,,-99.99,,2013-07-24 08:32:00,
2013-07-24 08:42:00,59.0,52.0,-100.00,SE,133,4.0,6.0,78,0.00,,,-99.99,,2013-07-24 08:42:00,
2013-07-24 09:12:00,56.0,51.0,-100.00,SE,140,6.0,10.0,82,0.00,,,-99.99,,2013-07-24 09:12:00,
2013-07-24 09:43:00,57.0,51.0,-100.00,SSE,164,7.0,9.0,81,0.00,,,-99.99,,2013-07-24 09:43:00,
2013-07-24 10:33:00,56.0,51.0,-100.00,SSE,155,6.0,7.0,83,0.00,,,-99.99,,2013-07-24 10:33:00,
2013-07-24 10:43:00,56.0,51.0,-100.00,SSE,155,5.0,7.0,84,0.00,,,-99.99,,2013-07-24 10:43:00,
2013-07-24 11:12:00,54.0,51.0,-100.00,SSE,165,4.0,6.0,89,0.00,,,-99.99,,2013-07-24 11:12:00,
2013-07-24 11:43:00,54.0,50.0,-100.00,SSW,199,3.0,4.0,87,0.00,,,-99.99,,2013-07-24 11:43:00,
2013-07-24 12:42:00,53.0,47.0,-100.00,SE,138,1.0,3.0,82,0.00,,,-99.99,,2013-07-24 12:42:00,
2013-07-24 13:43:00,57.0,49.0,-100.00,ENE,73,1.0,3.0,75,0.00,,,-99.99,,2013-07-24 13:43:00,
2013-07-24 14:43:00,64.0,51.0,-100.00,SE,137,4.0,6.0,64,0.00,,,-99.99,,2013-07-24 14:43:00,
2013-07-24 15:22:00,68.0,51.0,-100.00,ESE,109,4.0,9.0,53,0.00,,,-99.99,,2013-07-24 15:22:00,
2013-07-24 15:43:00,68.0,52.0,-100.00,ESE,109,7.0,12.0,56,0.00,,,-99.99,,2013-07-24 15:43:00,
2013-07-24 15:52:00,69.0,52.0,-100.00,ESE,109,6.0,11.0,55,0.00,,,-99.99,,2013-07-24 15:52:00,
2013-07-24 16:02:00,69.0,53.0,-100.00,ESE,109,7.0,12.0,56,0.00,,,-99.99,,2013-07-24 16:02:00,
2013-07-24 16:12:00,71.0,52.0,-100.00,ESE,109,6.0,11.0,52,0.00,,,-99.99,,2013-07-24 16:12:00,
2013-07-24 16:22:00,71.0,51.0,-100.00,ESE,109,6.0,12.0,49,0.00,,,-99.99,,2013-07-24 16:22:00,
2013-07-24 16:32:00,72.0,51.0,-100.00,ESE,109,6.0,11.0,47,0.00,,,-99.99,,2013-07-24 16:32:00,
2013-07-24 16:43:00,72.0,51.0,-100.00,ESE,109,6.0,14.0,47,0.00,,,-99.99,,2013-07-24 16:43:00,
2013-07-24 16:53:00,73.0,50.0,-100.00,ESE,109,6.0,11.0,43,0.00,,,-99.99,,2013-07-24 16:53:00,
2013-07-24 17:02:00,74.0,50.0,-100.00,ESE,109,6.0,14.0,43,0.00,,,-99.99,,2013-07-24 17:02:00,
2013-07-24 17:12:00,74.0,44.0,-100.00,ESE,109,7.0,13.0,34,0.00,,,-99.99,,2013-07-24 17:12:00,
2013-07-24 17:22:00,74.0,45.0,-100.00,ESE,109,7.0,14.0,35,0.00,,,-99.99,,2013-07-24 17:22:00,
2013-07-24 17:33:00,75.0,49.0,-100.00,ESE,109,7.0,13.0,40,0.00,,,-99.99,,2013-07-24 17:33:00,
2013-07-24 17:43:00,74.0,49.0,-100.00,ESE,109,7.0,16.0,40,0.00,,,-99.99,,2013-07-24 17:43:00,
2013-07-24 17:53:00,76.0,46.0,-100.00,ESE,109,7.0,14.0,35,0.00,,,-99.99,,2013-07-24 17:53:00,
2013-07-24 18:02:00,76.0,48.0,-100.00,ESE,109,8.0,13.0,37,0.00,,,-99.99,,2013-07-24 18:02:00,
2013-07-24 18:12:00,76.0,46.0,-100.00,ESE,109,11.0,17.0,35,0.00,,,-99.99,,2013-07-24 18:12:00,
2013-07-24 18:22:00,77.0,44.0,-100.00,ESE,109,10.0,16.0,31,0.00,,,-99.99,,2013-07-24 18:22:00,
2013-07-24 19:32:00,77.0,47.0,-100.00,ESE,109,12.0,21.0,35,0.00,,,-99.99,,2013-07-24 19:32:00,
2013-07-24 19:43:00,78.0,45.0,-100.00,ESE,109,9.0,19.0,32,0.00,,,-99.99,,2013-07-24 19:43:00,
2013-07-24 19:53:00,78.0,46.0,-100.00,ESE,109,9.0,18.0,32,0.00,,,-99.99,,2013-07-24 19:53:00,
2013-07-24 20:02:00,80.0,45.0,-100.00,ESE,109,7.0,15.0,29,0.00,,,-99.99,,2013-07-24 20:02:00,
2013-07-24 20:13:00,78.0,46.0,-100.00,ESE,109,7.0,17.0,32,0.00,,,-99.99,,2013-07-24 20:13:00,
2013-07-24 20:22:00,78.0,47.0,-100.00,ESE,109,9.0,18.0,34,0.00,,,-99.99,,2013-07-24 20:22:00,
2013-07-24 20:32:00,78.0,47.0,-100.00,ESE,109,11.0,19.0,33,0.00,,,-99.99,,2013-07-24 20:32:00,
2013-07-24 20:42:00,78.0,46.0,-100.00,ESE,109,12.0,17.0,33,0.00,,,-99.99,,2013-07-24 20:42:00,
2013-07-24 20:52:00,78.0,46.0,-100.00,ESE,109,12.0,17.0,32,0.00,,,-99.99,,2013-07-24 20:52:00,
2013-07-24 21:02:00,77.0,46.0,-100.00,ESE,109,9.0,17.0,32,0.00,,,-99.99,,2013-07-24 21:02:00,
2013-07-24 21:12:00,77.0,47.0,-100.00,ESE,109,14.0,23.0,34,0.00,,,-99.99,,2013-07-24 21:12:00,
2013-07-24 21:43:00,79.0,45.0,-100.00,ESE,109,15.0,24.0,31,0.00,,,-99.99,,2013-07-24 21:43:00,
2013-07-24 22:43:00,75.0,50.0,-100.00,ESE,109,21.0,27.0,42,0.00,,,-99.99,,2013-07-24 22:43:00,
2013-07-24 23:12:00,75.0,53.0,-100.00,ESE,109,24.0,31.0,46,0.00,,,-99.99,,2013-07-24 23:12:00,